ETH737 LSZH-LIMC

Flight info

Callsign ETH737
Flight time 0h 44m
Altitude 19000
Route VEBIT4N VEBIT T53 GERSA N850 DEGAD Z424 RIXUV
Aircraft A359/H-SDE2E3GHIJ3J4J5LM1ORWXY/LB1D1

Departure

Time 2026-05-05 18:27
Airport Zürich Airport (LSZH)

Arrival

Time 2026-05-05 19:12
Airport Milan Malpensa International Airport (LIMC)
Time Latitude Longitude Altitude Speed Heading
2026-05-05 16:34 47.46040 8.55624 1412 ft 0 kts
2026-05-05 17:20 47.46039 8.55624 1407 ft 0 kts
2026-05-05 18:12 47.46038 8.55623 1407 ft 1 kts
2026-05-05 18:13 47.46016 8.55620 1407 ft 4 kts
2026-05-05 18:13 47.45993 8.55616 1408 ft 4 kts 13°
2026-05-05 18:13 47.45969 8.55601 1412 ft 4 kts 46°
2026-05-05 18:13 47.45958 8.55574 1410 ft 4 kts 83°
2026-05-05 18:14 47.45959 8.55534 1408 ft 4 kts 103°
2026-05-05 18:14 47.45965 8.55497 1413 ft 2 kts 97°
2026-05-05 18:14 47.45966 8.55489 1414 ft 1 kts 96°
2026-05-05 18:14 47.45967 8.55482 1413 ft 1 kts 96°
2026-05-05 18:15 47.45967 8.55476 1413 ft 0 kts 96°
2026-05-05 18:19 47.45967 8.55483 1413 ft 3 kts 96°
2026-05-05 18:19 47.45962 8.55550 1410 ft 9 kts 96°
2026-05-05 18:19 47.45955 8.55644 1411 ft 10 kts 96°
2026-05-05 18:19 47.45948 8.55748 1416 ft 11 kts 96°
2026-05-05 18:20 47.45940 8.55860 1413 ft 11 kts 96°
2026-05-05 18:20 47.45931 8.55979 1418 ft 12 kts 96°
2026-05-05 18:20 47.45923 8.56100 1423 ft 13 kts 96°
2026-05-05 18:20 47.45913 8.56233 1419 ft 13 kts 96°
2026-05-05 18:21 47.45904 8.56348 1426 ft 11 kts 102°
2026-05-05 18:21 47.45873 8.56443 1428 ft 10 kts 126°
2026-05-05 18:21 47.45830 8.56511 1425 ft 9 kts 128°
2026-05-05 18:21 47.45805 8.56581 1425 ft 0 kts 113°
2026-05-05 18:22 47.45805 8.56582 1425 ft 1 kts 112°
2026-05-05 18:22 47.45794 8.56640 1425 ft 10 kts 101°
2026-05-05 18:22 47.45786 8.56745 1426 ft 11 kts 94°
2026-05-05 18:22 47.45781 8.56841 1428 ft 9 kts 95°
2026-05-05 18:23 47.45778 8.56901 1429 ft 0 kts 95°
2026-05-05 18:23 47.45773 8.56952 1430 ft 7 kts 102°
2026-05-05 18:23 47.45749 8.57020 1431 ft 8 kts 132°
2026-05-05 18:24 47.45701 8.57051 1431 ft 8 kts 177°
2026-05-05 18:24 47.45666 8.57014 1431 ft 5 kts 244°
2026-05-05 18:24 47.45666 8.56967 1430 ft 0 kts 276°
2026-05-05 18:26 47.45670 8.56909 1430 ft 22 kts 275°
2026-05-05 18:26 47.45707 8.56324 1428 ft 103 kts 276°
2026-05-05 18:26 47.45782 8.55242 1417 ft 169 kts 279°
2026-05-05 18:27 47.45960 8.53428 1974 ft 198 kts 277°
2026-05-05 18:27 47.46192 8.51414 3207 ft 203 kts 278°
2026-05-05 18:27 47.46425 8.49331 4370 ft 214 kts 277°
2026-05-05 18:27 47.46411 8.47174 5308 ft 212 kts 255°
2026-05-05 18:28 47.44330 8.43607 6500 ft 250 kts 222°
2026-05-05 18:28 47.43061 8.41830 7491 ft 252 kts 227°
2026-05-05 18:28 47.41894 8.39913 8504 ft 255 kts 230°
2026-05-05 18:29 47.40747 8.37885 9526 ft 260 kts 230°
2026-05-05 18:29 47.39391 8.36083 10425 ft 267 kts 215°
2026-05-05 18:29 47.37651 8.34966 11245 ft 280 kts 195°
2026-05-05 18:29 47.35624 8.34903 11745 ft 309 kts 176°
2026-05-05 18:30 47.33499 8.35739 11894 ft 331 kts 161°
2026-05-05 18:30 47.31421 8.37271 11904 ft 337 kts 155°
2026-05-05 18:30 47.29376 8.39024 11956 ft 338 kts 153°
2026-05-05 18:30 47.27325 8.40767 12340 ft 340 kts 154°
2026-05-05 18:31 47.25258 8.42410 13256 ft 342 kts 156°
2026-05-05 18:31 47.23117 8.43963 14204 ft 343 kts 159°
2026-05-05 18:31 47.20917 8.45380 15094 ft 345 kts 161°
2026-05-05 18:31 47.18658 8.46634 15956 ft 347 kts 164°
2026-05-05 18:32 47.16342 8.47693 16788 ft 350 kts 168°
2026-05-05 18:32 47.13981 8.48514 17638 ft 353 kts 172°
2026-05-05 18:32 47.11537 8.49088 18394 ft 357 kts 175°
2026-05-05 18:32 47.09089 8.49756 18794 ft 360 kts 169°
2026-05-05 18:33 47.06690 8.50839 18905 ft 355 kts 164°
2026-05-05 18:33 47.04398 8.51959 18934 ft 345 kts 167°
2026-05-05 18:33 47.02107 8.52802 18938 ft 342 kts 170°
2026-05-05 18:33 46.99811 8.53504 18935 ft 341 kts 173°
2026-05-05 18:34 46.97480 8.54069 18934 ft 340 kts 175°
2026-05-05 18:34 46.95129 8.54517 18920 ft 340 kts 176°
2026-05-05 18:34 46.92770 8.54889 18923 ft 340 kts 177°
2026-05-05 18:34 46.90402 8.55223 18921 ft 340 kts 177°
2026-05-05 18:35 46.88050 8.55541 18955 ft 340 kts 178°
2026-05-05 18:35 46.85680 8.55860 18929 ft 340 kts 178°
2026-05-05 18:35 46.83343 8.56183 18933 ft 339 kts 178°
2026-05-05 18:35 46.81012 8.56513 18961 ft 339 kts 178°
2026-05-05 18:36 46.78659 8.56848 18939 ft 339 kts 178°
2026-05-05 18:36 46.76300 8.57181 18962 ft 339 kts 178°
2026-05-05 18:36 46.73969 8.57511 18945 ft 338 kts 178°
2026-05-05 18:36 46.71624 8.57847 18964 ft 338 kts 178°
2026-05-05 18:37 46.69284 8.58181 18961 ft 338 kts 178°
2026-05-05 18:37 46.66967 8.58517 18957 ft 337 kts 178°
2026-05-05 18:37 46.64626 8.58851 18962 ft 337 kts 178°
2026-05-05 18:37 46.62291 8.59187 18965 ft 336 kts 178°
2026-05-05 18:38 46.59954 8.59521 18967 ft 335 kts 178°
2026-05-05 18:38 46.57615 8.59859 18980 ft 336 kts 178°
2026-05-05 18:38 46.55329 8.60181 18980 ft 335 kts 178°
2026-05-05 18:38 46.53000 8.60508 18980 ft 335 kts 178°
2026-05-05 18:39 46.50662 8.60838 18980 ft 335 kts 178°
2026-05-05 18:39 46.48361 8.61163 18991 ft 336 kts 178°
2026-05-05 18:39 46.46043 8.61433 18986 ft 334 kts 182°
2026-05-05 18:39 46.43743 8.61101 18990 ft 329 kts 196°
2026-05-05 18:40 46.41617 8.59942 18979 ft 325 kts 208°
2026-05-05 18:40 46.39625 8.58388 18992 ft 325 kts 211°
2026-05-05 18:40 46.37696 8.56710 18996 ft 326 kts 213°
2026-05-05 18:40 46.35778 8.54960 18984 ft 325 kts 214°
2026-05-05 18:41 46.33862 8.53185 18993 ft 325 kts 213°
2026-05-05 18:41 46.31957 8.51433 18997 ft 325 kts 213°
2026-05-05 18:41 46.30030 8.49682 18993 ft 326 kts 213°
2026-05-05 18:41 46.28019 8.48284 18989 ft 328 kts 201°
2026-05-05 18:42 46.25766 8.47653 18995 ft 331 kts 186°
2026-05-05 18:42 46.23446 8.47633 18993 ft 333 kts 181°
2026-05-05 18:42 46.21127 8.47870 18997 ft 334 kts 179°
2026-05-05 18:42 46.18810 8.48230 18999 ft 335 kts 177°
2026-05-05 18:43 46.16503 8.48629 18997 ft 335 kts 177°
2026-05-05 18:43 46.14211 8.49020 18996 ft 335 kts 178°
2026-05-05 18:43 46.11904 8.49463 18989 ft 337 kts 173°
2026-05-05 18:43 46.09632 8.50390 18910 ft 337 kts 166°
2026-05-05 18:44 46.07456 8.51509 18760 ft 331 kts 165°
2026-05-05 18:44 46.05276 8.52659 18412 ft 333 kts 164°
2026-05-05 18:44 46.03118 8.53806 17864 ft 334 kts 164°
2026-05-05 18:44 46.00921 8.54981 17407 ft 331 kts 164°
2026-05-05 18:45 45.98757 8.56139 16939 ft 330 kts 163°
2026-05-05 18:45 45.96646 8.57274 16573 ft 326 kts 163°
2026-05-05 18:45 45.94531 8.58414 16393 ft 314 kts 163°
2026-05-05 18:45 45.92553 8.59478 16257 ft 303 kts 164°
2026-05-05 18:46 45.90616 8.60544 16121 ft 294 kts 161°
2026-05-05 18:46 45.88838 8.62020 15878 ft 295 kts 148°
2026-05-05 18:46 45.87246 8.63827 15537 ft 296 kts 145°
2026-05-05 18:46 45.85652 8.65701 15192 ft 296 kts 145°
2026-05-05 18:47 45.84044 8.67577 14845 ft 296 kts 145°
2026-05-05 18:47 45.82462 8.69416 14486 ft 295 kts 145°
2026-05-05 18:47 45.80860 8.71275 14147 ft 294 kts 145°
2026-05-05 18:47 45.79277 8.73109 13818 ft 293 kts 145°
2026-05-05 18:48 45.77681 8.74954 13453 ft 292 kts 145°
2026-05-05 18:48 45.76042 8.76687 13121 ft 288 kts 152°
2026-05-05 18:48 45.74333 8.78062 12789 ft 284 kts 156°
2026-05-05 18:48 45.72593 8.79386 12474 ft 282 kts 155°
2026-05-05 18:49 45.70864 8.80704 12139 ft 280 kts 155°
2026-05-05 18:49 45.69142 8.82023 11810 ft 278 kts 155°
2026-05-05 18:49 45.67444 8.83324 11515 ft 277 kts 155°
2026-05-05 18:49 45.65769 8.84609 11200 ft 275 kts 155°
2026-05-05 18:50 45.64107 8.85886 11010 ft 266 kts 155°
2026-05-05 18:50 45.62497 8.87113 10882 ft 257 kts 156°
2026-05-05 18:50 45.60836 8.87974 10667 ft 249 kts 170°
2026-05-05 18:50 45.59159 8.88448 10398 ft 247 kts 172°
2026-05-05 18:51 45.57487 8.88883 10142 ft 246 kts 172°
2026-05-05 18:51 45.55802 8.89329 9859 ft 246 kts 172°
2026-05-05 18:51 45.54098 8.89784 9576 ft 253 kts 172°
2026-05-05 18:51 45.52359 8.90252 9288 ft 254 kts 171°
2026-05-05 18:52 45.50626 8.90721 9020 ft 253 kts 171°
2026-05-05 18:52 45.48887 8.91198 8854 ft 254 kts 171°
2026-05-05 18:52 45.47155 8.91669 8457 ft 254 kts 171°
2026-05-05 18:52 45.45411 8.92141 8037 ft 255 kts 171°
2026-05-05 18:53 45.43660 8.92616 7623 ft 254 kts 171°
2026-05-05 18:53 45.41943 8.93081 7268 ft 253 kts 171°
2026-05-05 18:53 45.40229 8.93547 7033 ft 246 kts 171°
2026-05-05 18:53 45.38567 8.93999 6762 ft 242 kts 171°
2026-05-05 18:54 45.36928 8.94450 6459 ft 238 kts 171°
2026-05-05 18:54 45.35330 8.94881 6146 ft 235 kts 171°
2026-05-05 18:54 45.33725 8.95313 5896 ft 230 kts 171°
2026-05-05 18:54 45.32159 8.95736 5874 ft 229 kts 171°
2026-05-05 18:55 45.30586 8.96159 5872 ft 229 kts 171°
2026-05-05 18:55 45.29025 8.96579 5870 ft 229 kts 171°
2026-05-05 18:55 45.27456 8.97005 5856 ft 229 kts 171°
2026-05-05 18:55 45.26415 8.97288 5855 ft 229 kts 171°
2026-05-05 18:56 45.24336 8.97853 5857 ft 229 kts 171°
2026-05-05 18:56 45.22774 8.98277 5826 ft 226 kts 171°
2026-05-05 18:56 45.21744 8.98560 5782 ft 218 kts 171°
2026-05-05 18:56 45.20270 8.98960 5779 ft 218 kts 172°
2026-05-05 18:57 45.18778 8.99356 5737 ft 218 kts 171°
2026-05-05 18:57 45.17287 8.99752 5553 ft 217 kts 171°
2026-05-05 18:57 45.15818 9.00144 5354 ft 217 kts 171°
2026-05-05 18:57 45.14325 9.00542 5154 ft 216 kts 171°
2026-05-05 18:58 45.12863 9.00939 4995 ft 211 kts 171°
2026-05-05 18:58 45.11447 9.01320 4983 ft 203 kts 171°
2026-05-05 18:58 45.10078 9.01686 4990 ft 203 kts 171°
2026-05-05 18:58 45.08697 9.02006 4987 ft 203 kts 176°
2026-05-05 18:59 45.07290 9.01757 4982 ft 203 kts 201°
2026-05-05 18:59 45.06146 9.00607 4981 ft 204 kts 228°
2026-05-05 18:59 45.05514 8.98825 4996 ft 207 kts 252°
2026-05-05 18:59 45.05219 8.96819 4994 ft 209 kts 257°
2026-05-05 19:00 45.04971 8.94797 4987 ft 209 kts 257°
2026-05-05 19:00 45.04741 8.92756 4989 ft 210 kts 261°
2026-05-05 19:00 45.04895 8.90713 4992 ft 216 kts 285°
2026-05-05 19:00 45.05757 8.88951 4991 ft 223 kts 317°
2026-05-05 19:01 45.07165 8.88008 5001 ft 227 kts 344°
2026-05-05 19:01 45.08716 8.87568 4993 ft 228 kts 348°
2026-05-05 19:01 45.10278 8.87187 4993 ft 228 kts 348°
2026-05-05 19:01 45.11827 8.86797 4992 ft 228 kts 348°
2026-05-05 19:02 45.13390 8.86393 4994 ft 228 kts 348°
2026-05-05 19:02 45.14952 8.85979 4996 ft 227 kts 348°
2026-05-05 19:02 45.16506 8.85561 4995 ft 228 kts 348°
2026-05-05 19:02 45.18058 8.85141 4993 ft 226 kts 348°
2026-05-05 19:03 45.19602 8.84723 4992 ft 225 kts 348°
2026-05-05 19:03 45.21128 8.84310 4988 ft 225 kts 348°
2026-05-05 19:03 45.22672 8.83894 4991 ft 225 kts 348°
2026-05-05 19:03 45.24214 8.83473 5012 ft 225 kts 348°
2026-05-05 19:04 45.25736 8.83057 5008 ft 223 kts 348°
2026-05-05 19:04 45.27241 8.82645 5010 ft 222 kts 348°
2026-05-05 19:04 45.28781 8.82225 5016 ft 222 kts 348°
2026-05-05 19:04 45.30292 8.81866 5004 ft 223 kts 355°
2026-05-05 19:05 45.31845 8.81788 5021 ft 223 kts 356°
2026-05-05 19:05 45.33370 8.81541 5017 ft 222 kts 349°
2026-05-05 19:05 45.34879 8.81137 4875 ft 218 kts 348°
2026-05-05 19:05 45.36380 8.80720 4437 ft 220 kts 348°
2026-05-05 19:06 45.37875 8.80302 4198 ft 215 kts 348°
2026-05-05 19:06 45.39289 8.79903 4059 ft 204 kts 348°
2026-05-05 19:06 45.40648 8.79518 4005 ft 190 kts 348°
2026-05-05 19:06 45.41886 8.79171 4006 ft 181 kts 348°
2026-05-05 19:07 45.43180 8.78847 4017 ft 190 kts 350°
2026-05-05 19:07 45.44476 8.78530 3998 ft 187 kts 349°
2026-05-05 19:07 45.45725 8.78165 3990 ft 178 kts 348°
2026-05-05 19:07 45.46911 8.77808 3954 ft 176 kts 348°
2026-05-05 19:08 45.48119 8.77465 3622 ft 176 kts 349°
2026-05-05 19:08 45.49322 8.77141 3245 ft 175 kts 350°
2026-05-05 19:08 45.50498 8.76811 2967 ft 172 kts 350°
2026-05-05 19:08 45.51669 8.76479 2741 ft 171 kts 351°
2026-05-05 19:09 45.52780 8.76175 2518 ft 168 kts 351°
2026-05-05 19:09 45.53877 8.75872 2294 ft 157 kts 351°
2026-05-05 19:09 45.54900 8.75589 2092 ft 144 kts 351°
2026-05-05 19:09 45.55860 8.75324 1896 ft 136 kts 351°
2026-05-05 19:10 45.56774 8.75073 1728 ft 135 kts 351°
2026-05-05 19:10 45.57692 8.74819 1540 ft 134 kts 351°
2026-05-05 19:10 45.58602 8.74571 1362 ft 133 kts 350°
2026-05-05 19:10 45.59506 8.74337 1151 ft 130 kts 349°
2026-05-05 19:11 45.60376 8.74103 1000 ft 129 kts 348°
2026-05-05 19:11 45.61254 8.73842 841 ft 129 kts 347°
2026-05-05 19:11 45.62131 8.73594 775 ft 126 kts 348°
2026-05-05 19:11 45.62919 8.73377 749 ft 108 kts 351°
2026-05-05 19:12 45.63424 8.73239 748 ft 32 kts 349°
2026-05-05 19:12 45.63623 8.73155 749 ft 29 kts 333°
2026-05-05 19:12 45.63780 8.72982 753 ft 28 kts 312°
2026-05-05 19:12 45.63877 8.72783 753 ft 17 kts 304°
2026-05-05 19:13 45.63909 8.72715 753 ft 0 kts 304°
2026-05-05 19:13 45.63927 8.72668 756 ft 12 kts 295°
2026-05-05 19:13 45.63910 8.72581 753 ft 10 kts 200°
2026-05-05 19:13 45.63832 8.72598 756 ft 14 kts 168°
2026-05-05 19:14 45.63724 8.72629 758 ft 17 kts 168°
2026-05-05 19:14 45.63605 8.72663 754 ft 13 kts 169°
2026-05-05 19:14 45.63519 8.72687 754 ft 13 kts 169°
2026-05-05 19:14 45.63428 8.72682 754 ft 14 kts 213°
2026-05-05 19:15 45.63395 8.72548 756 ft 16 kts 259°
2026-05-05 19:15 45.63372 8.72384 752 ft 15 kts 259°
2026-05-05 19:15 45.63352 8.72232 753 ft 18 kts 257°
2026-05-05 19:15 45.63333 8.72091 751 ft 9 kts 259°
2026-05-05 19:16 45.63321 8.72002 756 ft 10 kts 259°
2026-05-05 19:16 45.63304 8.71875 754 ft 14 kts 259°
2026-05-05 19:16 45.63283 8.71726 757 ft 14 kts 259°
2026-05-05 19:16 45.63253 8.71666 756 ft 7 kts 192°
2026-05-05 19:17 45.63201 8.71680 756 ft 9 kts 162°
2026-05-05 19:17 45.63151 8.71669 755 ft 6 kts 225°
2026-05-05 19:17 45.63141 8.71615 755 ft 5 kts 263°
2026-05-05 19:17 45.63139 8.71595 759 ft 2 kts 259°
2026-05-05 19:18 45.63138 8.71586 759 ft 0 kts 259°